Location: Gombori
(14.9797°N, 2.9419°W)
Time: 00:15:52
(UTC+00:00)

Cosmos 2150 Rocket - Pass Details

Date: 06 December 2021
Orbit: 748 x 808 km, 74.0° (Epoch: 23 January)

Event Time Altitude Azimuth Distance (km) Brightness Sun altitude
Rises 20:22:05 0° 324° (NW) 3,223 7.4 -37.4°
Reaches altitude 10° 20:24:56 10° 309° (NW) 2,306 6.8 -38.1°
Maximum altitude 20:28:51 21° 260° (W) 1,665 6.2 -39.0°
Drops below altitude 10° 20:32:48 10° 212° (SSW) 2,334 6.9 -39.9°
Sets 20:35:44 0° 196° (SSW) 3,273 7.6 -40.6°
